Regional Weather Roundup
Issued by NWS

Home | Current Version | Previous Version | Text Only | Print | Product List | Glossary On
Versions: 1 2 3 4 5 6 7 8 9 10 11 12 13 14 15 16 17 18 19 20 21 22 23 24 25 26 27 28 29 30 31 32 33 34 35 36 37 38 39 40 41 42 43 44 45 46 47 48 49 50
000
ASUS45 KREV 250210
RWRNV
NEVADA REGIONAL WEATHER ROUNDUP
NATIONAL WEATHER SERVICE RENO NV
700 PM PDT SAT SEP 24 2016

NOTE: "FAIR" INDICATES FEW OR NO CLOUDS BELOW 12,000 FEET WITH NO
SIGNIFICANT WEATHER AND/OR OBSTRUCTIONS TO VISIBILITY.

NVZ001-003-004-250300-
WESTERN NEVADA

CITY           SKY/WX    TMP DP  RH WIND       PRES   REMARKS
RENO           CLEAR     72  25  17 N17       30.32R
CARSON CITY    FAIR      70  28  21 NE10      30.34R
MINDEN         FAIR      66  28  24 N5        30.33R
PYRAMID LAKE     N/A     66 N/A N/A SW3         N/A
FALLON         CLEAR     66  33  29 NE6       30.31R
LOVELOCK       CLEAR     69  27  20 NE7       30.31R
$$

NVZ002-CAZ072-073-250300-
NORTHERN AND CENTRAL SIERRA

CITY           SKY/WX    TMP DP  RH WIND       PRES   REMARKS
S. LAKE TAHOE  CLEAR     62  27  26 NE8       30.39R
TRUCKEE        CLEAR     61  12  15 N6        30.39R
SQUAW VLY 8000 NOT AVBL
MAMMOTH LAKES  FAIR      63  16  16 CALM      30.42R
BRIDGEPORT       N/A     60  11  14 W7        30.39R
$$

NVZ030-031-036-250300-
NORTHERN NEVADA

CITY           SKY/WX    TMP DP  RH WIND       PRES   REMARKS
ELKO           CLEAR     62  26  25 NW6       30.35R
WINNEMUCCA     CLEAR     63  23  21 N7        30.34R
WENDOVER       CLEAR     59  45  58 S5        30.32R
$$

NVZ035-037-250300-
CENTRAL NEVADA

CITY           SKY/WX    TMP DP  RH WIND       PRES   REMARKS
ELY            CLEAR     55  32  41 NW9       30.36R
EUREKA           N/A     54  32  43 N5        30.38R
$$

NVZ013-014-250300-
SOUTH CENTRAL NEVADA

CITY           SKY/WX    TMP DP  RH WIND       PRES   REMARKS
TONOPAH        CLEAR     68  30  24 N18       30.30R
$$

NVZ017-020-022-250300-
SOUTHERN NEVADA

CITY           SKY/WX    TMP DP  RH WIND       PRES   REMARKS
LAS VEGAS      PTCLDY    82  26  13 CALM      30.06R
N. LAS VEGAS   CLEAR     81  29  15 S6        30.05R
NELLIS AFB     CLEAR     80  31  16 E6        30.03R
HENDERSON      CLEAR     79  32  18 E3        30.09S
MERCURY        CLEAR     79  19  10 NE10      30.13R
$$



USA.gov is the U.S. government's official web portal to all federal, state and local government web resources and services.